Theta_e
318 316 314 312 312 311 310 310 311 311 311 311 312 313 312 311 310 309 308 308 308 308 308 307 307 307 307 307 307 306 306 306 306 306 306 306 306 305 305 305 305 305
319 318 314 313 315 314 312 311 313 313 312 313 313 313 313 313 313 311 310 309 309 308 308 308 308 308 307 307 307 307 306 306 306 306 306 306 305 305 304 304 304 304
319 319 315 314 317 318 316 315 317 317 317 316 315 314 314 314 314 313 311 311 310 310 309 309 308 308 308 307 307 307 307 306 306 306 306 306 305 305 304 304 304 304
319 320 318 314 317 319 319 318 319 319 320 319 317 316 315 314 314 313 313 312 311 311 311 310 309 309 308 308 308 307 307 307 306 306 306 306 305 305 305 304 304 304
321 320 320 317 316 319 320 319 319 320 320 320 319 318 316 316 315 315 315 314 313 313 312 312 311 310 309 309 308 308 308 307 307 307 306 306 306 306 305 305 305 305
322 321 321 320 318 319 319 319 319 320 320 320 320 319 318 318 318 318 317 317 316 316 315 314 313 313 312 311 309 309 309 308 308 308 307 307 307 306 306 306 305 305
323 322 322 322 321 320 320 319 320 320 320 320 320 320 320 320 320 320 319 319 319 319 318 317 316 315 315 314 313 311 310 309 309 309 309 308 308 307 307 306 306 306
322 323 322 322 322 321 321 320 320 320 321 320 319 319 320 320 320 320 320 320 320 320 320 319 318 318 318 317 317 315 313 311 310 310 310 309 308 308 308 308 307 307
322 324 324 324 323 323 322 321 321 321 321 319 318 317 318 319 320 321 321 320 321 320 320 320 320 319 319 319 319 318 317 315 313 312 312 311 310 309 309 309 308 308
323 324 324 323 322 320 320 322 321 321 320 319 318 317 318 319 320 321 321 321 320 319 319 319 320 320 320 320 320 320 319 318 316 315 314 313 312 311 310 311 309 308
323 323 322 322 320 319 320 322 321 320 320 320 319 318 318 318 319 320 320 321 320 318 318 319 320 320 320 319 320 320 320 319 318 317 316 315 314 313 312 312 311 310
321 321 320 320 320 320 321 322 322 321 320 320 319 318 317 317 317 318 318 318 317 317 317 318 319 319 319 318 319 318 319 320 319 318 317 316 316 315 313 313 312 312
322 321 322 322 322 322 321 321 321 321 320 319 319 319 319 318 318 318 318 317 317 318 318 318 318 317 317 317 318 317 317 319 319 319 318 318 317 316 315 314 313 312
318 318 318 318 319 319 319 319 319 319 319 319 319 319 319 319 319 319 319 318 318 319 319 319 318 317 316 317 319 317 316 318 319 319 318 318 317 317 316 315 314 313
312 313 311 311 313 315 315 315 315 315 316 317 317 317 317 318 319 319 320 320 319 320 320 319 319 318 318 318 319 319 317 318 319 319 318 318 318 317 316 315 314 313
309 309 309 308 310 311 312 312 311 311 312 313 314 314 314 315 316 316 317 318 319 320 320 320 318 318 318 318 318 319 318 318 319 319 318 318 318 317 316 316 315 314
308 308 309 309 309 310 310 310 310 310 311 311 312 312 313 314 315 315 314 314 315 317 319 319 319 318 319 319 319 319 318 317 318 319 318 317 317 317 317 316 315 315
309 309 309 308 309 309 309 310 310 311 311 311 311 312 313 314 314 315 314 313 313 313 314 316 316 315 317 319 320 320 320 319 318 319 318 317 317 317 317 316 315 315
307 307 308 308 308 309 308 308 309 310 310 311 311 311 312 313 313 314 314 314 314 313 313 314 314 313 314 315 316 317 319 319 319 319 318 317 316 316 316 316 315 315
307 307 308 308 308 308 308 307 307 306 306 307 307 306 307 308 309 311 312 313 314 314 314 314 315 315 314 313 311 312 316 319 319 318 317 316 316 316 316 315 314 314
307 308 308 309 309 309 308 308 307 306 306 306 306 305 304 303 304 305 307 310 313 314 315 315 315 315 314 313 313 314 316 317 318 319 317 315 315 315 315 314 313 312
307 308 308 309 309 309 308 308 307 307 307 307 307 307 307 306 305 305 305 307 310 311 312 313 314 314 314 313 314 316 316 316 317 318 317 315 314 314 314 313 312 311
307 307 307 308 308 308 309 309 308 308 308 308 308 307 308 308 308 309 309 308 309 310 311 312 312 313 313 313 314 316 316 316 316 316 316 315 314 313 312 311 310 310
307 307 307 307 307 307 307 308 308 308 308 308 308 308 308 309 309 310 311 310 310 311 311 312 312 312 313 313 313 314 315 316 316 316 315 313 313 312 311 310 310 310
306 306 306 305 305 305 305 306 306 307 307 307 308 307 308 308 309 309 310 310 310 310 311 312 312 312 313 313 313 314 314 315 315 315 314 312 311 311 311 311 310 309
306 306 305 306 306 306 306 306 307 308 308 308 308 308 309 309 309 309 310 310 310 311 311 311 311 312 313 313 314 313 313 314 314 314 313 312 311 310 311 310 308 307
Wind_Speed
18 14 13 13 12 11 9 9 7 6 4 4 5 5 6 6 7 7 7 8 8 7 6 6 6 5 5 7 8 8 8 7 6 7 6 5 5 5 5 5 5 5
19 15 14 13 13 11 9 8 7 6 4 3 2 2 2 3 4 5 5 6 6 6 6 5 5 4 4 5 6 6 6 6 6 6 6 6 6 6 5 5 6 5
21 17 15 15 13 11 9 8 7 6 5 4 2 2 2 2 2 2 3 5 5 5 5 4 4 4 3 3 4 5 5 5 6 6 6 7 6 6 6 6 6 6
21 18 16 15 14 11 8 9 9 8 7 7 5 5 5 5 5 4 4 4 5 4 4 3 3 3 3 3 3 3 4 5 5 5 6 6 6 6 6 6 6 6
18 16 13 13 14 12 9 9 10 10 10 8 7 7 7 7 7 7 6 6 6 6 6 5 4 3 3 2 3 3 3 3 3 4 4 4 5 6 5 5 5 6
15 14 10 10 12 13 11 10 10 11 11 10 9 8 7 7 8 9 9 9 9 9 9 7 6 6 5 4 3 4 3 2 1 1 1 2 3 3 3 3 3 3
16 15 13 12 13 14 13 12 12 12 12 11 10 8 7 7 9 10 11 11 11 12 11 10 9 8 8 7 6 6 6 5 4 4 3 2 1 1 1 1 1 1
19 18 18 17 16 15 15 14 15 15 14 13 12 10 9 9 9 10 11 11 12 12 12 12 12 10 10 10 9 8 8 8 8 7 7 7 6 4 3 3 3 3
21 20 21 21 19 18 17 17 17 17 17 16 14 12 11 11 10 8 9 10 10 11 11 13 14 14 13 12 11 10 9 10 10 10 9 10 10 9 8 7 6 6
22 22 21 20 19 18 19 21 21 20 19 18 16 14 13 13 13 13 13 14 14 14 14 14 14 15 15 14 14 13 13 12 12 13 12 11 12 12 12 12 10 9
20 21 20 19 19 19 21 23 23 21 21 20 19 18 16 16 17 17 17 17 18 18 17 15 16 17 16 16 17 18 18 16 16 15 14 13 13 13 14 15 14 12
17 18 17 16 16 17 20 23 22 21 21 20 20 20 18 17 18 19 20 21 23 22 19 18 19 18 17 18 19 20 21 21 20 18 16 15 15 15 15 16 16 15
12 11 10 10 10 12 16 18 19 19 19 18 19 19 19 18 18 19 20 21 22 22 20 20 20 17 17 21 22 20 20 23 22 22 20 18 17 17 16 16 17 16
6 5 4 5 5 6 7 8 9 10 10 12 15 17 18 19 19 19 18 19 20 21 21 22 21 20 21 24 24 21 21 23 23 24 24 22 19 18 17 17 17 18
5 4 3 4 3 3 3 2 2 3 3 6 8 10 11 12 14 15 16 18 21 23 24 24 23 24 24 24 25 24 25 25 24 24 25 24 21 19 19 19 18 20
4 3 2 2 1 1 1 1 1 2 3 4 5 5 6 7 8 10 12 15 18 20 22 22 22 23 23 23 24 25 27 27 25 23 24 25 23 22 21 21 21 22
3 3 3 2 2 1 1 2 3 4 4 4 5 6 6 7 9 10 10 11 12 13 16 17 18 19 20 21 22 23 24 27 28 27 24 23 24 24 24 24 24 23
3 4 4 4 4 4 4 4 4 5 5 5 6 6 6 6 8 10 11 11 11 12 12 14 14 14 15 17 19 20 22 25 28 30 28 25 24 26 26 25 25 24
4 3 3 3 4 5 6 6 7 7 7 8 9 9 9 8 8 8 10 12 14 14 14 14 13 13 13 14 15 17 20 22 24 28 29 26 24 26 28 27 26 24
2 2 3 4 5 5 6 6 6 7 8 9 10 10 11 11 11 10 10 11 13 15 16 16 16 15 15 15 15 15 17 19 21 23 24 22 23 26 27 26 25 23
3 2 3 4 5 6 6 6 6 6 6 7 8 9 10 11 12 13 13 13 14 14 16 17 17 17 17 16 16 16 17 17 19 21 21 20 22 24 25 24 23 22
4 3 4 5 6 7 8 8 8 8 7 8 9 10 11 12 12 13 14 14 15 15 16 17 18 18 19 18 17 18 18 17 18 21 22 21 21 23 24 24 23 22
6 6 6 6 7 7 8 8 8 9 9 10 11 11 12 13 13 14 15 15 16 16 17 18 19 20 20 19 19 19 20 20 20 21 22 23 23 24 23 22 20 20
9 9 9 9 9 9 10 11 11 12 12 13 13 13 13 14 14 15 17 18 18 18 18 19 20 20 21 20 20 20 20 20 21 22 23 23 23 22 21 19 19 20
11 12 13 13 13 13 14 14 15 16 16 15 15 15 15 16 17 18 19 19 19 19 20 20 20 19 20 20 20 20 20 20 21 22 22 22 21 20 20 20 21 21
14 14 14 13 13 14 14 14 15 15 16 16 15 15 15 16 18 19 19 19 19 18 18 19 19 18 18 18 18 19 18 18 20 22 22 21 20 19 19 19 20 20
Wind_Direction
181 175 175 175 172 173 168 163 158 143 129 114 104 94 96 99 94 95 93 91 93 92 90 90 89 87 79 86 95 94 92 94 95 94 97 101 102 103 109 111 114 125
187 185 179 182 184 185 179 173 164 149 142 124 104 71 62 72 73 69 66 70 79 88 90 86 84 86 77 73 83 91 93 92 93 95 98 101 99 101 103 103 108 116
191 192 186 187 190 187 176 176 177 163 165 177 193 247 298 329 356 12 22 34 44 61 74 72 71 78 79 71 76 92 97 91 91 98 99 95 92 95 93 88 96 107
196 198 193 190 192 189 176 177 186 184 187 196 205 228 261 284 295 309 326 344 355 6 23 31 35 39 41 43 47 71 92 97 96 87 84 88 88 90 86 77 81 87
205 204 197 188 185 189 190 189 191 194 199 204 207 220 243 269 282 292 299 307 318 325 334 340 340 340 338 350 358 11 43 76 96 87 84 95 95 88 84 77 78 82
207 209 199 185 179 187 198 204 203 202 206 208 208 219 240 259 273 285 293 298 302 307 311 311 312 313 307 305 300 299 316 328 347 34 42 77 94 94 91 83 73 84
199 206 203 195 189 193 200 204 210 211 209 207 207 217 236 253 268 281 289 294 297 301 304 302 301 302 299 297 288 280 282 281 280 281 294 314 337 171 157 119 85 119
196 203 205 203 199 200 202 204 213 217 217 218 216 215 226 242 261 278 285 288 294 301 303 300 299 298 294 294 292 284 277 275 272 267 273 284 284 273 268 263 259 243
195 202 206 206 204 204 208 212 218 220 223 231 232 226 227 234 243 256 262 262 269 283 288 285 289 294 292 291 296 294 287 279 274 270 268 272 277 277 272 268 266 259
197 203 207 211 215 218 220 221 222 222 225 232 233 228 223 221 225 234 241 247 259 274 277 265 261 267 271 273 279 286 292 289 281 275 270 266 270 272 270 269 268 259
205 210 215 223 230 232 228 226 226 225 226 229 233 235 230 223 226 234 239 246 258 271 274 262 249 248 255 264 267 269 276 284 284 278 274 270 267 266 266 268 268 262
215 222 229 235 238 235 231 231 233 233 235 241 250 254 251 244 242 244 247 252 260 267 268 260 254 257 267 274 273 267 265 269 274 276 275 273 269 266 264 264 264 262
212 217 228 236 236 231 229 233 236 239 244 252 258 260 258 257 256 256 257 258 261 264 262 256 254 260 267 268 269 273 270 264 264 268 271 271 268 265 262 259 258 256
166 171 187 209 216 216 219 227 233 237 243 247 251 254 255 260 264 264 265 265 262 262 260 257 254 254 257 257 258 267 272 263 256 257 262 265 265 262 257 252 250 248
129 142 146 147 151 156 164 168 197 221 232 238 247 256 261 266 269 266 265 264 263 261 259 258 257 256 257 257 257 260 262 257 251 250 254 257 259 257 252 246 244 244
155 167 146 127 142 160 197 224 244 249 259 264 268 280 292 295 288 279 272 266 263 259 257 257 258 258 258 258 259 260 258 252 248 248 248 251 253 252 247 244 243 245
153 167 157 155 177 204 252 268 271 268 270 275 277 285 299 306 306 302 295 284 274 266 261 258 258 260 261 260 259 260 257 250 247 247 246 245 249 251 247 244 244 247
185 193 191 197 205 209 218 231 248 260 268 276 281 287 292 296 302 304 302 299 292 284 275 267 263 260 262 262 259 258 257 253 251 251 249 245 247 249 247 244 245 248
206 202 197 210 225 234 234 234 239 248 256 262 267 274 279 282 291 298 300 299 296 293 288 283 279 273 267 264 261 259 261 261 260 259 256 251 247 244 242 243 246 248
251 237 218 225 236 243 246 249 253 259 262 263 265 269 271 272 275 277 281 285 289 291 291 290 289 286 280 270 264 266 270 269 266 265 259 249 242 240 240 242 243 243
302 295 260 249 245 242 247 257 266 273 278 278 281 285 285 280 275 271 269 270 274 280 284 284 283 283 282 275 267 269 274 272 268 265 257 243 235 236 240 241 239 239
295 289 276 270 268 270 274 276 279 285 285 279 279 283 287 288 287 283 277 270 267 268 272 275 276 277 279 279 273 270 270 271 269 265 257 247 239 234 232 233 235 240
263 261 261 266 273 280 284 284 287 288 283 279 277 277 278 280 282 282 279 273 269 266 265 268 272 273 276 278 275 270 269 269 267 260 252 247 242 235 230 230 235 244
255 252 250 253 259 265 268 269 273 274 273 273 273 273 274 273 271 269 267 267 266 264 263 266 270 272 272 273 272 270 269 269 265 257 249 242 237 235 236 240 247 253
259 259 262 265 266 267 268 269 273 274 273 271 271 271 269 266 265 264 264 266 266 265 264 267 271 272 269 267 268 267 266 266 262 255 247 241 236 237 243 251 256 259
267 271 276 276 272 269 268 271 277 277 274 274 277 276 268 262 262 262 264 267 270 270 270 270 271 272 267 263 262 263 263 263 257 251 247 244 242 243 249 255 258 258